Regional Weather Roundup
Issued by NWS

Home | Current Version | Previous Version | Graphics & Text | Print | Product List | Glossary On
Versions: 1 2 3 4 5 6 7 8 9 10 11 12 13 14 15 16 17 18 19 20 21 22 23 24 25 26 27 28 29 30 31 32 33 34 35 36 37 38 39 40 41 42 43 44 45 46 47 48 49 50
000
ASUS45 KCYS 070410
RWRWY

WYOMING REGIONAL WEATHER ROUNDUP
NATIONAL WEATHER SERVICE CHEYENNE WY
900 PM MST SAT FEB 06 2016

NOTE:  "FAIR" INDICATES FEW OR NO CLOUDS BELOW 12,000 FEET
WITH NO SIGNIFICANT WEATHER AND/OR OBSTRUCTIONS TO VISIBILITY.

WYZ001-070500-
YELLOWSTONE NATIONAL PARK

CITY           SKY/WX    TMP DP  RH WIND       PRES   REMARKS
LK YELLOWSTONE   N/A     21  15  78 CALM      30.25F
W YELLOWSTONE  NOT AVBL

$$
WYZ002>013-054>058-071-098>099-070500-
NORTHERN WYOMING

CITY           SKY/WX    TMP DP  RH WIND       PRES   REMARKS
JACKSON        CLOUDY    30  27  86 SW7       30.32R WCI  23
CODY           FAIR      39  18  41 W15G31    30.11R WCI  31
GREYBULL       FAIR      35  19  52 W12       30.12R WCI  27
WORLAND        FAIR      34  23  64 W3        30.13R
SHERIDAN       CLOUDY    35  22  58 NW12      30.12R WCI  27
BUFFALO        FAIR      34  17  50 NW15G22   30.10R WCI  24
GILLETTE       MOCLDY    33  18  53 NW16      30.09R WCI  23
HULETT         FAIR      34  18  51 W7        30.06R WCI  28
NEWCASTLE      FAIR      34  16  47 NW18G24   30.06R WCI  23

$$
WYZ014>020-022>026-101>103-070500-
CENTRAL WYOMING

CITY           SKY/WX    TMP DP  RH WIND       PRES   REMARKS
BIG PINEY      FAIR      28  18  66 N12       30.32S WCI  18
PINEDALE       FAIR      23  18  80 W13       30.33R WCI  11
DUBOIS         CLOUDY    30  19  64 W22G29    30.21R WCI  17
LANDER         FAIR      33  18  53 S6        30.17R WCI  28
RIVERTON       FAIR      39  19  44 NW28G38   30.16R WCI  28
CASPER         FAIR      33  20  58 SW14      30.14R WCI  23
DOUGLAS        FAIR      34  23  64 NW16G22     N/A  WCI  24

$$
WYZ021-027>030-104>119-070500-
SOUTHERN WYOMING

CITY           SKY/WX    TMP DP  RH WIND       PRES   REMARKS
EVANSTON       FAIR      24  11  57 SW6       30.40R WCI  17
FORT BRIDGER   CLEAR     25  16  68 W20       30.40S WCI  11
ROCK SPRINGS   FAIR      28  18  66 W26G38    30.30S WCI  13
DIXON          FAIR      15   8  74 NW3       30.40R
RAWLINS        FAIR      27  17  66 W28G40    30.23R WCI  11
SARATOGA       FAIR      30  19  64 SW10G22   30.28R WCI  21
LARAMIE        FAIR      31  15  52 W23G36    30.16F WCI  18
CHEYENNE       FAIR      39  15  37 W21G29    30.09S WCI  29
TORRINGTON     FAIR      39  22  50 W26       30.09R WCI  28
PINE BLUFFS    FAIR      34  23  64 N7        30.10R WCI  28

$$



USA.gov is the U.S. government's official web portal to all federal, state and local government web resources and services.